Vorticity
20 18 17 16 16 18 20 19 18 16 14 13 12 11 8 7 7 7 7 6 7 11 13 11 10 13 15 12 8 8 7 7 9 10 10 10 9 8 7 10 15 18 16 14 23 41 49 46 46 46 33 16 10 1 -12 -9 -2 -1 8 11 6 13 18
24 21 20 21 19 16 16 18 19 18 17 15 13 13 9 8 9 9 9 8 8 10 13 11 9 12 16 12 8 8 8 7 9 10 10 10 10 9 7 7 13 17 17 14 15 26 44 51 44 45 44 28 18 17 7 4 4 -3 1 7 1 8 20
27 25 23 22 22 20 16 17 18 18 17 16 14 14 11 8 9 11 11 9 9 11 11 11 10 10 14 13 8 8 8 8 9 10 10 10 10 10 8 6 9 15 17 15 15 17 29 46 48 41 44 41 29 23 19 16 9 -4 -5 3 -2 -0 14
27 30 27 24 24 22 17 16 16 16 16 17 16 14 12 11 10 11 14 12 9 11 11 10 10 10 13 14 9 8 9 9 9 9 10 10 11 10 9 7 7 11 16 15 15 17 18 31 47 44 40 45 42 31 23 17 8 -3 -4 3 1 -3 4
26 31 33 30 26 22 19 15 13 13 14 15 15 14 13 13 13 13 14 13 10 10 11 10 9 9 13 14 10 8 10 9 8 9 10 10 11 11 9 8 7 8 13 16 14 16 17 19 33 43 41 42 46 41 32 23 13 3 -2 1 1 -2 2
22 29 36 36 30 25 20 14 9 10 14 16 14 14 13 13 14 15 15 14 11 11 11 10 8 8 12 15 11 8 10 10 8 8 10 10 10 11 10 7 8 7 8 13 14 13 18 19 21 32 39 40 43 43 38 34 29 17 6 0 -3 -5 -3
21 28 36 40 36 27 18 14 14 12 13 17 16 12 13 15 15 15 16 15 11 11 12 10 8 8 12 15 12 8 10 11 9 8 9 11 10 10 12 9 7 8 7 10 14 12 14 19 19 22 30 37 43 42 37 36 37 32 21 11 4 -1 -6
21 26 37 47 41 25 15 12 12 9 6 13 19 16 14 15 14 13 16 15 11 11 13 11 9 8 10 14 12 9 11 10 9 8 8 10 11 9 11 11 7 8 8 7 11 13 12 16 20 20 22 29 38 43 40 35 34 35 33 24 15 7 -0
18 20 39 58 42 20 16 11 6 10 10 13 21 21 16 14 14 14 14 12 10 13 15 13 10 9 9 13 13 9 11 11 8 9 9 9 12 10 9 11 10 7 7 7 8 11 12 13 17 21 20 21 28 36 43 42 36 34 36 33 23 14 7
12 11 41 67 40 14 19 14 8 15 12 11 21 22 16 13 13 16 15 10 9 13 15 13 10 9 8 11 13 9 10 13 9 8 9 9 11 12 10 10 11 8 6 7 7 9 11 12 14 19 21 19 20 25 35 44 42 37 38 38 29 20 15
9 9 40 63 33 11 24 18 9 16 9 9 23 20 12 13 14 16 15 9 8 13 14 11 9 9 9 10 13 11 9 13 12 7 8 10 10 11 11 10 12 10 7 7 6 7 10 11 12 16 20 21 18 18 25 35 41 41 40 42 37 26 20
9 7 29 52 30 10 24 23 11 11 5 7 23 17 5 13 18 15 13 9 9 13 14 12 10 9 9 9 11 12 10 12 13 9 8 11 11 10 11 11 11 11 9 7 6 6 8 9 11 13 17 21 20 16 18 24 33 40 40 44 45 34 26
9 5 13 41 40 14 13 24 21 16 4 1 19 19 3 10 22 15 10 12 10 13 16 14 12 10 8 9 12 11 11 12 13 10 9 10 10 10 11 11 11 11 11 8 6 6 7 7 9 11 14 19 21 17 16 17 22 31 37 42 47 41 34
9 13 8 25 45 31 13 16 21 26 18 2 12 21 5 8 24 14 8 15 12 13 19 15 11 10 7 9 13 11 11 14 13 11 10 9 9 10 11 11 11 12 13 11 6 4 6 7 8 9 11 16 21 19 16 15 17 23 29 36 44 44 39
4 22 16 11 33 41 27 16 9 22 31 13 7 20 11 8 22 17 11 18 15 13 18 14 10 11 7 8 13 12 11 14 13 11 10 9 9 9 11 11 11 12 13 12 8 4 5 7 7 8 9 13 19 20 16 13 14 18 21 27 37 42 40
1 23 26 13 21 33 32 25 9 14 32 21 7 17 13 7 18 18 13 18 17 13 15 13 11 10 7 9 13 11 12 14 14 12 10 9 9 9 11 12 11 13 15 13 10 6 5 6 6 7 9 11 16 21 20 14 11 13 16 21 30 37 39
8 27 30 21 21 22 26 29 16 14 31 26 13 16 10 5 16 18 13 15 16 14 14 13 12 9 7 10 12 12 14 15 14 13 10 9 9 9 11 12 11 14 17 15 11 9 6 5 5 6 8 10 14 19 21 18 13 12 14 17 24 30 35
17 32 31 26 23 18 23 29 18 17 30 26 16 15 6 3 15 18 13 15 16 16 15 12 11 8 8 12 12 12 14 15 13 12 10 9 9 9 12 13 12 16 19 16 13 10 7 4 4 5 6 8 12 18 21 20 15 13 13 14 18 25 31
25 34 31 30 26 17 23 27 15 19 33 24 15 19 12 6 14 17 14 14 16 16 15 12 9 7 9 13 13 12 14 14 12 10 10 9 8 10 13 14 13 16 18 18 15 11 8 6 3 4 6 7 10 15 19 22 18 14 12 12 15 19 25
31 35 32 34 28 17 24 28 16 18 29 18 9 20 21 11 14 18 14 13 14 15 14 12 8 7 11 14 13 12 14 14 11 10 9 8 9 12 14 13 14 16 17 19 17 12 9 7 4 4 5 5 7 9 12 18 20 17 14 12 13 16 20
34 35 32 30 24 16 21 29 20 14 21 18 12 18 19 12 14 19 15 12 13 14 13 11 8 8 12 14 12 13 14 12 10 10 9 9 12 15 14 12 14 16 16 19 19 15 12 8 4 4 4 3 4 5 6 11 16 18 17 15 13 13 16
35 30 21 16 16 15 21 31 23 8 16 28 22 13 7 8 16 20 14 12 13 12 12 10 7 9 13 13 12 13 13 10 10 10 8 10 14 14 12 11 13 14 17 20 19 18 15 10 5 4 3 2 2 3 4 5 8 11 14 16 15 13 14
34 23 11 9 13 16 25 35 22 7 16 25 17 8 5 7 16 19 13 12 13 12 12 10 8 10 14 13 12 12 11 10 11 10 9 12 14 12 9 11 13 14 17 20 20 20 19 13 6 3 3 2 1 1 3 3 3 5 6 9 11 11 12
31 19 11 12 14 15 30 40 26 14 20 19 11 13 13 11 16 17 13 13 13 11 12 11 11 13 13 11 11 11 11 11 11 10 10 11 12 11 10 12 14 15 16 18 20 22 21 16 10 4 2 1 1 1 2 1 1 2 3 4 6 6 7
27 16 11 15 14 14 28 39 28 16 18 16 12 15 15 13 17 16 12 12 12 10 12 12 11 12 10 8 10 11 12 12 10 10 11 12 12 12 13 13 14 15 16 17 18 20 21 20 16 8 2 1 -0 -0 1 1 -0 1 1 2 5 5 5
22 12 10 11 10 9 15 22 19 12 14 18 18 17 15 15 17 14 11 11 11 11 13 12 10 10 9 9 11 13 13 12 11 11 11 11 12 12 12 14 15 15 15 15 16 19 21 22 21 14 6 2 0 0 1 1 0 1 1 2 4 6 7
18 10 13 10 6 8 10 11 11 9 11 16 18 17 17 16 14 12 11 11 12 13 13 11 10 10 10 11 13 14 13 11 10 10 10 10 12 12 14 16 16 15 15 14 15 18 20 22 23 21 13 6 3 2 2 1 2 2 2 4 6 8 9
15 10 19 15 8 12 14 12 12 12 13 16 18 19 19 15 13 13 11 10 12 13 12 11 11 10 11 13 13 13 12 10 9 10 11 12 12 12 13 16 16 16 16 16 16 17 18 19 22 24 20 12 7 5 4 3 3 4 4 6 10 11 11
11 9 17 15 12 16 15 11 10 11 14 17 19 20 18 14 13 12 10 10 13 12 11 11 11 11 12 13 12 12 11 10 10 11 11 11 9 11 15 18 18 19 19 18 17 18 17 17 19 23 24 19 12 9 7 5 5 5 8 11 13 14 13
12 14 15 10 11 16 14 11 9 9 12 17 19 19 16 13 12 11 9 10 12 12 12 12 12 13 14 13 12 11 10 9 9 10 11 10 10 13 17 19 19 20 20 18 17 16 16 16 17 21 24 23 18 13 10 8 9 10 13 15 15 14 12
10 14 12 8 12 15 11 9 9 10 14 16 17 16 14 11 10 9 9 11 12 12 12 12 12 13 13 12 11 10 9 9 9 9 11 12 13 16 17 17 18 19 18 17 15 13 14 14 15 17 20 21 19 16 13 12 13 13 14 15 14 11 8
6 7 7 9 16 19 17 13 10 12 16 18 17 16 13 9 9 10 11 12 12 11 11 11 11 11 11 11 11 10 9 10 9 10 13 13 14 17 18 17 18 17 17 16 14 12 13 13 13 15 17 17 16 15 14 14 13 14 15 14 10 7 5
6 6 5 6 11 16 20 21 18 17 19 19 18 15 11 9 10 11 11 11 10 10 11 11 11 13 12 12 11 11 10 10 9 11 12 12 14 16 16 15 16 17 17 16 13 12 12 13 13 13 14 13 13 12 12 12 12 14 15 11 6 4 7
8 9 7 8 8 7 12 19 23 22 19 17 16 15 11 10 10 10 11 12 12 12 12 12 12 12 12 11 11 11 10 10 9 11 12 14 16 15 13 14 15 17 18 17 13 11 11 11 11 12 11 10 10 10 11 12 13 15 13 7 4 5 8
9 10 11 14 13 8 8 16 21 21 17 15 15 13 10 10 10 11 12 13 12 11 11 11 11 11 11 11 12 11 10 10 9 10 12 14 15 14 12 14 15 16 17 16 13 11 10 9 9 10 9 9 9 9 11 13 14 15 11 5 3 5 7
6 5 11 19 19 11 9 13 17 18 17 14 13 11 11 11 11 11 12 12 11 11 11 11 11 11 11 11 11 10 10 9 9 9 11 12 14 14 13 14 15 15 15 15 13 11 9 8 8 8 7 8 8 8 11 14 15 14 10 4 3 5 6
Height
5348 5346 5344 5342 5341 5340 5340 5341 5343 5344 5344 5345 5347 5348 5348 5348 5348 5348 5348 5347 5347 5346 5346 5346 5347 5346 5346 5346 5347 5347 5347 5348 5348 5348 5348 5348 5348 5349 5349 5349 5350 5350 5350 5350 5350 5352 5356 5361 5367 5374 5381 5388 5396 5405 5413 5421 5430 5438 5445 5451 5458 5465 5473
5335 5332 5331 5329 5328 5327 5327 5328 5329 5330 5331 5333 5335 5336 5337 5337 5337 5338 5338 5338 5338 5338 5338 5339 5339 5339 5338 5339 5340 5340 5340 5341 5341 5342 5342 5342 5343 5343 5343 5343 5344 5345 5345 5345 5345 5346 5348 5353 5358 5365 5370 5377 5385 5393 5402 5411 5420 5428 5435 5442 5449 5456 5463
5323 5319 5317 5316 5315 5314 5315 5316 5317 5317 5319 5320 5323 5325 5326 5326 5327 5327 5328 5329 5329 5330 5330 5331 5331 5331 5331 5331 5333 5333 5333 5334 5335 5335 5336 5336 5337 5337 5337 5337 5338 5339 5340 5340 5340 5340 5342 5345 5349 5355 5361 5367 5374 5383 5391 5399 5407 5416 5424 5432 5439 5446 5454
5310 5307 5304 5303 5302 5302 5303 5304 5305 5305 5307 5309 5311 5313 5314 5315 5316 5318 5319 5319 5320 5321 5322 5323 5324 5324 5324 5324 5325 5326 5327 5327 5328 5329 5330 5330 5331 5331 5332 5332 5332 5333 5334 5335 5335 5335 5336 5338 5341 5346 5351 5358 5365 5372 5380 5388 5396 5404 5412 5421 5428 5435 5443
5298 5295 5292 5290 5289 5290 5291 5293 5294 5294 5296 5298 5300 5302 5303 5305 5306 5308 5309 5310 5311 5312 5314 5315 5316 5317 5316 5317 5318 5319 5320 5320 5321 5322 5323 5324 5325 5325 5326 5326 5327 5328 5329 5330 5331 5331 5331 5332 5335 5338 5342 5348 5355 5362 5369 5377 5385 5393 5401 5410 5418 5426 5433
5286 5282 5280 5277 5277 5277 5279 5282 5283 5283 5285 5287 5289 5291 5293 5294 5296 5298 5300 5301 5303 5304 5305 5307 5309 5309 5310 5310 5311 5312 5313 5314 5315 5316 5317 5318 5319 5319 5320 5321 5321 5322 5323 5325 5326 5326 5327 5328 5329 5331 5334 5338 5345 5352 5359 5366 5374 5381 5390 5398 5407 5416 5424
5274 5270 5267 5265 5265 5266 5268 5271 5272 5273 5275 5277 5279 5281 5283 5284 5286 5288 5290 5292 5294 5296 5297 5299 5301 5302 5303 5304 5304 5305 5306 5307 5308 5309 5311 5312 5313 5313 5314 5315 5316 5317 5318 5319 5320 5322 5323 5323 5324 5325 5327 5330 5335 5341 5348 5355 5363 5370 5377 5385 5393 5403 5411
5263 5259 5256 5254 5253 5255 5258 5261 5262 5263 5265 5267 5269 5271 5273 5275 5277 5278 5281 5283 5286 5287 5289 5291 5293 5294 5295 5296 5297 5297 5299 5300 5301 5303 5304 5306 5307 5307 5309 5309 5311 5312 5312 5314 5315 5316 5317 5319 5319 5320 5322 5324 5327 5332 5338 5344 5351 5358 5365 5372 5380 5389 5398
5254 5249 5245 5243 5243 5245 5248 5250 5252 5254 5256 5257 5259 5261 5263 5266 5267 5269 5272 5275 5277 5279 5281 5283 5285 5287 5288 5289 5289 5290 5292 5293 5294 5296 5298 5300 5301 5301 5303 5304 5305 5306 5307 5308 5310 5311 5312 5313 5314 5315 5317 5318 5321 5324 5329 5334 5340 5347 5354 5361 5369 5377 5385
5245 5241 5236 5234 5234 5236 5239 5241 5243 5245 5246 5247 5250 5252 5254 5256 5259 5261 5263 5266 5269 5271 5273 5275 5277 5279 5280 5281 5282 5284 5285 5287 5288 5289 5291 5293 5295 5296 5297 5298 5299 5301 5301 5303 5304 5305 5306 5308 5309 5310 5312 5312 5314 5317 5321 5325 5330 5336 5342 5349 5357 5365 5374
5237 5234 5229 5227 5227 5228 5230 5232 5234 5235 5236 5238 5240 5243 5246 5248 5250 5253 5255 5258 5261 5263 5265 5267 5269 5271 5272 5274 5275 5276 5278 5280 5281 5283 5285 5287 5289 5290 5291 5292 5294 5295 5296 5297 5298 5299 5301 5302 5303 5305 5306 5307 5309 5311 5314 5317 5321 5326 5331 5337 5344 5353 5361
5229 5226 5223 5220 5220 5221 5222 5223 5225 5226 5227 5230 5231 5234 5237 5240 5242 5244 5247 5250 5253 5255 5257 5259 5261 5263 5265 5266 5267 5269 5272 5274 5275 5276 5279 5281 5283 5284 5285 5286 5288 5290 5291 5292 5293 5294 5296 5297 5298 5300 5301 5303 5304 5305 5307 5310 5314 5317 5322 5327 5333 5341 5348
5221 5219 5215 5213 5212 5213 5213 5215 5216 5217 5219 5221 5223 5225 5228 5232 5234 5236 5239 5242 5245 5247 5249 5251 5253 5255 5257 5258 5260 5262 5265 5267 5268 5270 5273 5275 5276 5278 5279 5280 5282 5283 5285 5287 5288 5289 5290 5292 5293 5294 5296 5298 5299 5300 5301 5304 5307 5310 5314 5318 5323 5330 5336
5213 5210 5208 5205 5204 5204 5205 5207 5208 5208 5211 5213 5215 5216 5219 5223 5227 5229 5232 5234 5237 5239 5241 5243 5245 5247 5249 5251 5252 5255 5258 5260 5262 5264 5266 5268 5270 5271 5273 5274 5275 5277 5280 5281 5283 5284 5285 5287 5288 5289 5291 5292 5293 5294 5296 5298 5301 5303 5307 5310 5313 5319 5325
5204 5202 5200 5197 5196 5196 5197 5199 5199 5200 5202 5205 5207 5208 5211 5215 5220 5222 5224 5226 5229 5231 5234 5236 5238 5240 5242 5243 5245 5248 5250 5253 5255 5258 5260 5262 5264 5265 5267 5268 5269 5272 5274 5276 5277 5278 5280 5282 5283 5284 5286 5287 5288 5289 5291 5293 5295 5297 5300 5302 5305 5310 5315
5195 5193 5191 5189 5188 5188 5189 5190 5191 5192 5194 5197 5199 5201 5204 5209 5212 5215 5217 5219 5221 5223 5226 5228 5231 5233 5235 5237 5239 5241 5244 5246 5249 5251 5254 5255 5257 5259 5261 5263 5264 5266 5268 5271 5272 5273 5275 5277 5279 5280 5281 5282 5283 5284 5286 5288 5290 5291 5294 5297 5299 5302 5305
5187 5184 5182 5181 5181 5180 5181 5182 5184 5185 5187 5189 5192 5194 5199 5203 5205 5207 5210 5212 5214 5216 5219 5222 5224 5226 5228 5230 5232 5234 5237 5240 5242 5245 5247 5249 5251 5253 5255 5257 5258 5260 5262 5265 5267 5268 5270 5272 5274 5276 5277 5278 5279 5280 5282 5284 5284 5287 5289 5291 5292 5294 5297
5178 5176 5174 5174 5173 5173 5174 5175 5177 5178 5180 5182 5185 5188 5192 5196 5198 5200 5203 5205 5207 5209 5212 5215 5217 5219 5222 5224 5226 5228 5231 5234 5236 5238 5241 5243 5245 5247 5249 5251 5253 5254 5257 5259 5261 5263 5265 5267 5269 5270 5273 5274 5275 5276 5277 5278 5279 5282 5284 5285 5286 5289 5291
5170 5167 5166 5166 5166 5166 5167 5168 5170 5172 5173 5176 5179 5182 5186 5189 5192 5194 5195 5198 5201 5203 5205 5208 5211 5213 5216 5217 5220 5222 5225 5227 5229 5232 5234 5236 5239 5242 5244 5245 5247 5248 5250 5253 5255 5256 5259 5262 5264 5266 5268 5270 5271 5272 5273 5273 5274 5277 5278 5279 5281 5283 5285
5162 5160 5159 5158 5159 5159 5160 5162 5164 5165 5167 5170 5173 5176 5180 5183 5185 5187 5189 5191 5194 5197 5200 5202 5204 5207 5210 5212 5214 5217 5219 5221 5223 5225 5228 5231 5234 5236 5238 5238 5240 5242 5244 5246 5249 5250 5253 5257 5260 5262 5264 5265 5266 5268 5269 5269 5270 5272 5273 5275 5277 5278 5279
5156 5154 5153 5152 5153 5154 5155 5156 5158 5160 5162 5165 5168 5171 5174 5177 5179 5180 5182 5185 5189 5191 5194 5196 5198 5201 5204 5206 5208 5210 5213 5215 5217 5219 5222 5226 5229 5230 5231 5232 5234 5236 5237 5240 5243 5245 5247 5251 5255 5258 5260 5261 5262 5264 5265 5265 5267 5268 5269 5271 5272 5274 5275
5150 5148 5148 5148 5148 5149 5150 5151 5153 5155 5157 5160 5163 5165 5168 5171 5172 5174 5177 5180 5183 5186 5188 5190 5193 5196 5198 5200 5202 5205 5207 5208 5210 5213 5217 5221 5223 5224 5224 5225 5228 5229 5231 5234 5236 5239 5242 5245 5249 5252 5255 5257 5258 5260 5261 5262 5263 5265 5266 5268 5269 5271 5272
5144 5144 5143 5144 5144 5144 5145 5146 5148 5150 5152 5155 5158 5160 5163 5165 5167 5169 5172 5175 5177 5180 5182 5185 5187 5190 5193 5195 5197 5199 5201 5203 5205 5209 5212 5215 5217 5217 5218 5219 5221 5223 5225 5228 5230 5233 5236 5240 5243 5247 5250 5252 5254 5255 5256 5258 5259 5261 5263 5265 5266 5267 5268
5139 5139 5139 5139 5140 5140 5140 5141 5143 5146 5148 5150 5153 5155 5158 5160 5162 5164 5167 5170 5172 5175 5177 5180 5182 5185 5187 5189 5191 5193 5195 5198 5201 5204 5207 5209 5211 5211 5212 5213 5214 5216 5219 5221 5224 5227 5230 5233 5237 5240 5244 5246 5248 5250 5252 5254 5256 5258 5260 5261 5263 5264 5265
5135 5135 5135 5135 5136 5136 5136 5137 5139 5142 5144 5146 5148 5150 5153 5155 5157 5159 5162 5165 5167 5170 5172 5175 5177 5179 5181 5183 5186 5188 5191 5193 5196 5199 5201 5203 5205 5206 5207 5208 5209 5210 5212 5215 5217 5221 5223 5227 5230 5234 5237 5240 5243 5245 5248 5250 5252 5254 5256 5257 5259 5261 5262
5130 5130 5131 5131 5132 5133 5133 5135 5136 5138 5140 5142 5144 5146 5148 5150 5152 5155 5157 5160 5163 5165 5168 5170 5171 5173 5175 5178 5181 5184 5187 5189 5192 5194 5196 5198 5199 5201 5202 5203 5204 5205 5206 5208 5211 5214 5217 5220 5224 5228 5231 5235 5238 5241 5243 5246 5248 5250 5252 5253 5255 5257 5258
5125 5126 5127 5127 5128 5129 5130 5132 5133 5134 5136 5138 5140 5141 5143 5145 5148 5150 5153 5156 5158 5161 5163 5164 5166 5168 5171 5174 5177 5180 5182 5184 5187 5189 5191 5193 5194 5195 5196 5198 5199 5200 5201 5202 5205 5208 5212 5214 5218 5221 5226 5230 5233 5235 5238 5240 5243 5245 5247 5249 5251 5252 5253
5120 5121 5122 5123 5124 5125 5126 5128 5129 5130 5132 5134 5135 5137 5139 5141 5144 5146 5149 5152 5154 5156 5158 5159 5162 5164 5167 5170 5173 5175 5178 5180 5182 5184 5186 5188 5189 5190 5191 5193 5194 5195 5197 5198 5200 5203 5206 5209 5211 5215 5220 5224 5227 5230 5232 5235 5237 5240 5242 5244 5246 5248 5248
5116 5117 5117 5118 5119 5121 5122 5123 5125 5127 5128 5130 5131 5133 5135 5137 5140 5142 5145 5147 5149 5151 5153 5155 5158 5161 5163 5166 5168 5171 5173 5175 5178 5180 5182 5183 5184 5185 5187 5188 5189 5191 5193 5195 5196 5199 5201 5204 5206 5210 5214 5218 5222 5224 5227 5229 5232 5234 5237 5239 5241 5242 5243
5111 5112 5113 5114 5115 5116 5118 5119 5121 5123 5124 5125 5127 5129 5131 5133 5136 5138 5140 5143 5145 5147 5148 5151 5154 5157 5159 5162 5164 5166 5169 5171 5173 5175 5177 5178 5180 5181 5182 5184 5185 5187 5189 5191 5193 5195 5197 5199 5202 5205 5209 5213 5216 5219 5221 5224 5226 5229 5232 5234 5236 5237 5238
5106 5108 5109 5110 5111 5112 5113 5115 5117 5118 5120 5121 5123 5125 5127 5130 5132 5134 5136 5139 5141 5143 5145 5147 5150 5153 5155 5157 5160 5162 5164 5167 5169 5171 5173 5174 5175 5177 5178 5180 5181 5183 5185 5187 5189 5191 5193 5196 5198 5201 5204 5208 5211 5213 5216 5219 5222 5224 5227 5229 5231 5232 5233
5102 5103 5105 5106 5107 5108 5109 5111 5112 5114 5116 5118 5120 5122 5124 5126 5128 5130 5132 5135 5137 5139 5141 5143 5146 5148 5151 5153 5155 5158 5160 5162 5165 5167 5168 5170 5171 5172 5174 5176 5177 5179 5180 5183 5185 5187 5190 5192 5195 5198 5200 5203 5206 5209 5211 5214 5217 5219 5222 5224 5226 5227 5228
5098 5099 5100 5102 5103 5104 5105 5106 5108 5110 5112 5114 5116 5118 5120 5122 5124 5126 5128 5131 5133 5135 5137 5139 5142 5145 5147 5149 5151 5154 5156 5158 5161 5163 5164 5165 5167 5168 5170 5171 5173 5174 5176 5179 5182 5184 5186 5189 5191 5194 5196 5199 5202 5204 5207 5210 5212 5215 5217 5220 5221 5222 5223
5094 5095 5096 5097 5099 5100 5101 5103 5104 5106 5108 5110 5112 5114 5116 5118 5120 5122 5125 5127 5129 5132 5134 5136 5138 5141 5143 5146 5148 5150 5152 5154 5156 5158 5160 5161 5162 5164 5165 5167 5169 5171 5173 5176 5178 5180 5183 5185 5188 5190 5192 5195 5197 5200 5202 5205 5208 5210 5213 5215 5217 5218 5219
5089 5091 5092 5093 5095 5096 5098 5099 5101 5102 5104 5106 5108 5111 5113 5115 5117 5119 5121 5124 5126 5128 5130 5132 5135 5137 5139 5142 5144 5146 5148 5150 5152 5154 5156 5157 5159 5160 5161 5162 5165 5167 5169 5171 5174 5177 5179 5181 5184 5186 5189 5191 5193 5196 5198 5201 5203 5206 5209 5211 5213 5214 5215
5085 5087 5088 5089 5091 5093 5094 5096 5097 5099 5101 5103 5105 5107 5109 5111 5114 5116 5118 5120 5122 5124 5126 5129 5131 5133 5135 5138 5140 5143 5145 5147 5148 5150 5152 5153 5155 5156 5157 5158 5161 5163 5165 5167 5170 5173 5175 5177 5180 5182 5185 5187 5189 5191 5194 5196 5199 5202 5204 5207 5209 5210 5211